CDC8987 ZBYN-ZBCF

Flight info

Callsign CDC8987
Flight time N/A
Altitude 29100
Route ISLEP G212 SOTMU B339 HUR B334 KAKAT
Aircraft A20N/M-SDE2E3FGHIRWXY/LB1

Departure

Time 2026-04-26 09:39
Airport Taiyuan Wusu International Airport (ZBYN)

Arrival

Time N/A
Airport Chifeng Yulong Airport (ZBCF)
Time Latitude Longitude Altitude Speed Heading
2026-04-26 09:27 37.75136 112.62970 2591 ft 0 kts 84°
2026-04-26 09:28 37.75136 112.62968 2591 ft 1 kts 84°
2026-04-26 09:28 37.75134 112.62949 2591 ft 2 kts 83°
2026-04-26 09:28 37.75132 112.62930 2591 ft 2 kts 84°
2026-04-26 09:28 37.75133 112.62911 2591 ft 2 kts 119°
2026-04-26 09:29 37.75143 112.62897 2591 ft 2 kts 152°
2026-04-26 09:29 37.75152 112.62893 2591 ft 1 kts 172°
2026-04-26 09:29 37.75159 112.62892 2591 ft 0 kts 173°
2026-04-26 09:31 37.75158 112.62892 2591 ft 0 kts 173°
2026-04-26 09:31 37.75133 112.62897 2591 ft 7 kts 170°
2026-04-26 09:31 37.75064 112.62885 2591 ft 13 kts 213°
2026-04-26 09:31 37.74970 112.62801 2591 ft 18 kts 205°
2026-04-26 09:32 37.74838 112.62845 2591 ft 22 kts 157°
2026-04-26 09:32 37.74698 112.62924 2591 ft 22 kts 153°
2026-04-26 09:32 37.74574 112.63036 2591 ft 21 kts 149°
2026-04-26 09:32 37.74449 112.62989 2591 ft 19 kts 230°
2026-04-26 09:33 37.74348 112.62885 2591 ft 18 kts 175°
2026-04-26 09:33 37.74262 112.62993 2591 ft 17 kts 127°
2026-04-26 09:33 37.74189 112.63113 2591 ft 17 kts 127°
2026-04-26 09:33 37.74118 112.63232 2591 ft 16 kts 127°
2026-04-26 09:34 37.74049 112.63348 2591 ft 16 kts 128°
2026-04-26 09:34 37.73980 112.63460 2591 ft 16 kts 128°
2026-04-26 09:34 37.73914 112.63570 2591 ft 15 kts 127°
2026-04-26 09:34 37.73846 112.63679 2591 ft 15 kts 128°
2026-04-26 09:35 37.73783 112.63786 2591 ft 15 kts 127°
2026-04-26 09:35 37.73719 112.63893 2591 ft 15 kts 126°
2026-04-26 09:35 37.73656 112.63996 2591 ft 14 kts 129°
2026-04-26 09:35 37.73570 112.64138 2591 ft 44 kts 127°
2026-04-26 09:36 37.73350 112.64503 2591 ft 51 kts 127°
2026-04-26 09:36 37.73147 112.64840 2591 ft 44 kts 127°
2026-04-26 09:36 37.72990 112.65102 2592 ft 31 kts 127°
2026-04-26 09:36 37.72861 112.65316 2592 ft 29 kts 127°
2026-04-26 09:37 37.72742 112.65514 2592 ft 27 kts 127°
2026-04-26 09:37 37.72642 112.65650 2592 ft 18 kts 175°
2026-04-26 09:37 37.72541 112.65575 2592 ft 17 kts 218°
2026-04-26 09:37 37.72528 112.65529 2592 ft 4 kts 310°
2026-04-26 09:38 37.72630 112.65359 2592 ft 55 kts 308°
2026-04-26 09:38 37.73009 112.64728 2592 ft 122 kts 307°
2026-04-26 09:38 37.73634 112.63683 2592 ft 175 kts 307°
2026-04-26 09:38 37.74400 112.62397 3024 ft 184 kts 308°
2026-04-26 09:39 37.75174 112.61106 3610 ft 188 kts 311°
2026-04-26 09:39 37.76018 112.59840 4262 ft 190 kts 312°
2026-04-26 09:39 37.76894 112.58579 4763 ft 200 kts 313°
2026-04-26 09:39 37.77851 112.57204 5158 ft 216 kts 313°
2026-04-26 09:40 37.78868 112.55740 5554 ft 233 kts 313°
2026-04-26 09:40 37.79985 112.54118 5880 ft 255 kts 313°
2026-04-26 09:40 37.81185 112.52371 6316 ft 274 kts 313°
2026-04-26 09:40 37.82458 112.50510 6980 ft 284 kts 312°
2026-04-26 09:41 37.83744 112.48634 7911 ft 283 kts 311°
2026-04-26 09:41 37.85007 112.46783 8844 ft 281 kts 310°
2026-04-26 09:41 37.86279 112.44917 9727 ft 281 kts 310°
2026-04-26 09:41 37.87546 112.43055 10558 ft 282 kts 310°
2026-04-26 09:42 37.88836 112.41155 11054 ft 296 kts 310°
2026-04-26 09:42 37.90229 112.39104 11449 ft 313 kts 310°
2026-04-26 09:42 37.91665 112.36990 12049 ft 321 kts 310°
2026-04-26 09:42 37.93113 112.34862 12829 ft 323 kts 309°
2026-04-26 09:43 37.94653 112.32811 13616 ft 326 kts 320°
2026-04-26 09:43 37.96722 112.31613 14266 ft 338 kts 346°
2026-04-26 09:43 37.99078 112.31767 14964 ft 349 kts 13°
2026-04-26 09:43 38.01214 112.33290 15637 ft 362 kts 39°
2026-04-26 09:44 38.02757 112.35802 16325 ft 370 kts 55°
2026-04-26 09:44 38.04024 112.38686 16974 ft 375 kts 59°
2026-04-26 09:44 38.05148 112.41653 17598 ft 380 kts 63°
2026-04-26 09:44 38.06178 112.44778 18247 ft 384 kts 65°
2026-04-26 09:45 38.07060 112.47984 18822 ft 390 kts 69°
2026-04-26 09:45 38.07785 112.51318 19359 ft 397 kts 73°
2026-04-26 09:45 38.08322 112.54736 19884 ft 404 kts 77°
2026-04-26 09:45 38.08654 112.58319 20396 ft 412 kts 82°
2026-04-26 09:46 38.08752 112.61950 20932 ft 418 kts 87°
2026-04-26 09:46 38.08603 112.65679 21445 ft 425 kts 93°
2026-04-26 09:46 38.08202 112.69360 21899 ft 432 kts 98°
2026-04-26 09:46 38.07516 112.73113 22390 ft 437 kts 104°
2026-04-26 09:47 38.06560 112.76789 22814 ft 444 kts 110°
2026-04-26 09:47 38.05316 112.80404 23238 ft 450 kts 116°
2026-04-26 09:47 38.03822 112.83833 23685 ft 454 kts 122°
2026-04-26 09:47 38.02026 112.87178 24164 ft 456 kts 128°
2026-04-26 09:48 38.00016 112.90250 24606 ft 458 kts 135°
2026-04-26 09:48 37.97751 112.93108 24964 ft 461 kts 141°
2026-04-26 09:48 37.95278 112.95667 25334 ft 462 kts 148°
2026-04-26 09:48 37.92600 112.97935 25742 ft 461 kts 154°
2026-04-26 09:49 37.89910 113.00200 26077 ft 470 kts 145°
2026-04-26 09:49 37.87677 113.03271 26271 ft 485 kts 124°
2026-04-26 09:49 37.86326 113.07185 26426 ft 492 kts 102°
2026-04-26 09:49 37.86058 113.11456 26593 ft 490 kts 80°
2026-04-26 09:50 37.86831 113.15574 26768 ft 482 kts 63°
2026-04-26 09:50 37.88118 113.19518 26955 ft 487 kts 60°
2026-04-26 09:50 37.89355 113.23483 27105 ft 497 kts 63°
2026-04-26 09:50 37.90454 113.27692 27250 ft 507 kts 66°
2026-04-26 09:51 37.91442 113.31992 27397 ft 515 kts 68°
2026-04-26 09:51 37.92401 113.36377 27539 ft 521 kts 69°
2026-04-26 09:51 37.93361 113.40789 27720 ft 526 kts 69°
2026-04-26 09:51 37.94385 113.45235 27992 ft 526 kts 66°
2026-04-26 09:52 37.95604 113.49626 28303 ft 524 kts 62°
2026-04-26 09:52 37.98562 113.57957 28765 ft 524 kts 55°
2026-04-26 09:52 38.00207 113.62126 29015 ft 525 kts 55°
2026-04-26 09:53 38.03458 113.70384 29063 ft 529 kts 56°
2026-04-26 09:53 38.06695 113.78738 29056 ft 530 kts 57°
2026-04-26 09:54 38.09896 113.87085 29041 ft 529 kts 56°
2026-04-26 09:54 38.13107 113.95464 29029 ft 529 kts 56°
2026-04-26 09:55 38.16309 114.03838 29009 ft 529 kts 56°
2026-04-26 09:55 38.19517 114.12259 29002 ft 529 kts 56°
2026-04-26 09:56 38.22738 114.20655 28998 ft 529 kts 56°
2026-04-26 09:56 38.25935 114.29013 28989 ft 528 kts 56°
2026-04-26 09:57 38.29127 114.37395 28983 ft 529 kts 56°
2026-04-26 09:57 38.32314 114.45785 28984 ft 528 kts 56°
2026-04-26 09:58 38.35487 114.54177 28984 ft 528 kts 56°
2026-04-26 09:58 38.38673 114.62618 28991 ft 529 kts 56°
2026-04-26 09:59 38.41840 114.71036 28979 ft 529 kts 57°
2026-04-26 09:59 38.44994 114.79470 28986 ft 527 kts 57°
2026-04-26 10:00 38.48143 114.87878 28980 ft 527 kts 57°
2026-04-26 10:00 38.51285 114.96298 28987 ft 527 kts 57°
2026-04-26 10:01 38.54397 115.04675 28983 ft 526 kts 57°
2026-04-26 10:01 38.57523 115.13124 28974 ft 526 kts 57°
2026-04-26 10:02 38.60614 115.21544 28975 ft 525 kts 57°
2026-04-26 10:02 38.63727 115.30005 28970 ft 524 kts 57°
2026-04-26 10:03 38.66801 115.38361 28968 ft 524 kts 57°
2026-04-26 10:03 38.69915 115.46867 28984 ft 522 kts 57°
2026-04-26 10:04 38.73135 115.55083 28979 ft 517 kts 53°
2026-04-26 10:04 38.76733 115.62975 28981 ft 514 kts 51°
2026-04-26 10:05 38.80360 115.70834 28980 ft 514 kts 52°
2026-04-26 10:05 38.83974 115.78726 28978 ft 514 kts 52°
2026-04-26 10:06 38.87558 115.86594 28994 ft 513 kts 53°
2026-04-26 10:06 38.91139 115.94485 28964 ft 511 kts 53°
2026-04-26 10:07 38.94719 116.02386 28984 ft 510 kts 53°
2026-04-26 10:07 38.98266 116.10239 28974 ft 510 kts 53°
2026-04-26 10:08 39.01815 116.18116 28994 ft 510 kts 53°
2026-04-26 10:08 39.05351 116.25982 28983 ft 510 kts 53°
2026-04-26 10:09 39.08850 116.33792 28979 ft 508 kts 53°
2026-04-26 10:09 39.12370 116.41670 29012 ft 508 kts 54°
2026-04-26 10:10 39.15882 116.49538 29016 ft 510 kts 53°
2026-04-26 10:10 39.17849 116.53142 29277 ft 501 kts 43°
2026-04-26 10:10 39.20303 116.56280 29727 ft 488 kts 32°
2026-04-26 10:11 39.23030 116.58735 30110 ft 475 kts 22°
2026-04-26 10:11 39.25968 116.60525 30510 ft 463 kts 13°
2026-04-26 10:11 39.28984 116.61936 30816 ft 461 kts 11°
2026-04-26 10:11 39.31986 116.63274 30985 ft 461 kts 11°
2026-04-26 10:12 39.38070 116.65997 31021 ft 462 kts 12°
2026-04-26 10:12 39.44115 116.68758 31017 ft 462 kts 12°
2026-04-26 10:13 39.50175 116.71555 31027 ft 463 kts 12°
2026-04-26 10:13 39.56214 116.74357 31017 ft 463 kts 12°
2026-04-26 10:14 39.62273 116.77173 31022 ft 463 kts 13°
2026-04-26 10:14 39.68347 116.80002 31023 ft 464 kts 13°
2026-04-26 10:15 39.74432 116.82680 31017 ft 460 kts
2026-04-26 10:15 39.80619 116.84082 31023 ft 449 kts 358°
2026-04-26 10:16 39.86793 116.84006 30988 ft 441 kts 348°
2026-04-26 10:16 39.92860 116.82879 31024 ft 439 kts 345°
2026-04-26 10:17 39.98853 116.81643 31011 ft 438 kts 345°
2026-04-26 10:17 40.04876 116.80411 30992 ft 439 kts 345°
2026-04-26 10:18 40.10939 116.79182 31001 ft 439 kts 345°
2026-04-26 10:18 40.15973 116.78159 30999 ft 440 kts 345°